Location: ?????
(31.8092°N, 35.2590°E)
Time: 04:01:29
(UTC+00:00)

Lacrosse 5 - Pass Details

Date: 30 October 2021
Orbit: 714 x 724 km, 57.0° (Epoch: 28 August)

Event Time Altitude Azimuth Distance (km) Brightness Sun altitude
Exits shadow 01:14:55 10° 152° (SSE) 2,159 4.5 -34.2°
Drops below altitude 10° 01:15:02 10° 152° (SSE) 2,205 4.6 -34.2°
Sets 01:17:21 0° 150° (SSE) 3,102 5.5 -33.7°
